FW1098 Weather Reports


time (UTC)temp
F
wind
direction
speed
knots
gust
knots
rain 1hr
in
rain 24hr
in
rain mn
in
humidity
%
barometer
mb
20260506181552 77 61 0.9 6.1 0.00 0.00 0.00 67 1014.6
20260506180043 77 40 1.7 4.3 0.00 0.00 0.00 68 1015.0
20260506174543 75 275 2.6 6.1 0.00 0.00 0.00 69 1015.2
20260506173051 76 217 0.9 7.0 0.00 0.00 0.00 69 1015.4
20260506171545 77 194 1.7 6.1 0.00 0.00 0.00 68 1015.8
20260506170046 74 246 1.7 4.3 0.00 0.00 0.00 72 1016.2
20260506164546 75 286 0.9 6.1 0.00 0.00 0.00 71 1016.4
20260506163036 74 263 2.6 6.1 0.00 0.00 0.00 72 1016.4
20260506161539 74 261 0.9 8.7 0.00 0.00 0.00 72 1016.7
20260506160042 74 47 0.9 2.6 0.00 0.00 0.00 72 1016.5
20260506154532 74 188 3.5 6.1 0.00 0.00 0.00 72 1016.3
20260506153026 73 184 0.9 7.0 0.00 0.00 0.00 75 1016.0
20260506151533 73 256 1.7 4.3 0.00 0.00 0.00 75 1015.8
20260506150030 72 238 0.0 3.5 0.00 0.00 0.00 76 1015.7
20260506144521 71 251 0.0 6.1 0.00 0.00 0.00 76 1015.7
20260506143120 71 251 0.9 5.2 0.00 0.00 0.00 77 1015.9
20260506141517 69 238 1.7 6.1 0.00 0.00 0.00 79 1016.2
20260506140014 69 255 1.7 3.5 0.00 0.00 0.00 79 1016.1
20260506134511 67 262 0.9 3.5 0.00 0.00 0.00 81 1015.9
20260506133007 66 242 0.0 3.5 0.00 0.00 0.00 82 1015.8
20260506131503 64 284 0.0 2.6 0.00 0.00 0.00 85 1015.8
20260506130138 63 216 0.0 0.0 0.00 0.00 0.00 87 1016.0
20260506124559 63 216 0.0 2.6 0.00 0.00 0.00 88 1016.0
20260506123058 62 301 0.9 2.6 0.00 0.00 0.00 89 1015.9
20260506121555 61 300 0.0 2.6 0.00 0.00 0.00 91 1015.9
20260506120052 60 24 0.0 1.7 0.00 0.00 0.00 93 1015.6
20260506114551 58 24 0.0 2.6 0.00 0.00 0.00 94 1015.6
20260506113049 57 24 0.0 0.0 0.00 0.00 0.00 93 1015.3
20260506111545 57 24 0.0 0.9 0.00 0.00 0.00 92 1014.8
20260506110051 57 55 0.0 0.0 0.00 0.00 0.00 92 1014.7
20260506104541 57 55 0.0 0.9 0.00 0.00 0.00 92 1014.9
20260506103046 57 320 0.0 0.0 0.00 0.00 0.00 91 1014.7
20260506101551 57 316 0.0 0.0 0.00 0.00 0.00 91 1014.6
20260506100039 57 316 0.0 0.0 0.00 0.00 0.00 91 1014.6
20260506094546 57 316 0.0 0.0 0.00 0.00 0.00 91 1014.6
20260506093035 57 316 0.0 0.0 0.00 0.00 0.00 90 1014.9
20260506091535 57 316 0.0 0.0 0.00 0.00 0.00 89 1015.0
20260506090036 57 316 0.0 0.0 0.00 0.00 0.00 89 1015.0
20260506084533 57 316 0.0 0.0 0.00 0.00 0.00 88 1015.0
20260506083030 58 316 0.0 0.0 0.00 0.00 0.00 88 1015.2
20260506081529 58 316 0.0 0.0 0.00 0.00 0.00 88 1015.3
20260506080129 58 316 0.0 0.0 0.00 0.00 0.00 87 1015.4
20260506073025 59 316 0.0 0.0 0.00 0.00 0.00 86 1015.4
20260506071524 59 316 0.0 0.0 0.00 0.00 0.00 85 1015.3
20260506061517 61 316 0.0 0.0 0.00 0.00 0.00 82 1015.4
20260506044509 63 316 0.0 0.0 0.00 0.00 0.00 78 1015.8
20260506043002 63 316 0.0 0.0 0.00 0.00 0.00 77 1015.8
20260506041608 64 316 0.0 0.0 0.00 0.00 0.00 75 1015.9
20260506040058 64 316 0.0 0.9 0.00 0.00 0.00 75 1015.9
20260506034600 65 316 0.0 0.9 0.00 0.00 0.00 73 1016.0
20260506033111 65 316 0.0 1.7 0.00 0.00 0.00 72 1016.1
20260506031605 65 311 0.0 1.7 0.00 0.00 0.00 72 1016.0
20260506030056 65 311 0.0 0.9 0.00 0.00 0.00 71 1015.8
20260506024556 66 311 0.0 0.9 0.00 0.00 0.00 71 1015.7
20260506023054 66 311 0.0 0.9 0.00 0.00 0.00 71 1015.6
20260506021557 66 311 0.0 0.9 0.00 0.00 0.00 72 1015.7
20260506020054 67 311 0.0 0.0 0.00 0.00 0.00 72 1015.7
20260506014557 67 311 0.0 0.9 0.00 0.00 0.00 71 1015.6
20260506013053 67 311 0.0 1.7 0.00 0.00 0.00 69 1015.3
20260506011553 67 311 0.0 0.0 0.00 0.00 0.00 66 1015.1
20260506010052 68 311 0.0 1.7 0.00 0.00 0.00 64 1014.9
20260506004556 69 311 0.0 0.0 0.00 0.00 0.00 61 1014.6
20260506003052 70 311 0.0 0.0 0.00 0.00 0.00 61 1014.1
20260506001609 70 311 0.0 0.0 0.00 0.00 0.00 63 1014.1
20260506000050 71 311 0.0 0.0 0.00 0.00 0.00 60 1014.2
20260505234552 73 311 0.0 0.9 0.00 0.00 0.00 57 1014.4
20260505233055 75 311 0.0 1.7 0.00 0.00 0.00 52 1014.3
20260505231554 77 311 0.0 2.6 0.00 0.00 0.00 46 1014.3
20260505230051 78 255 0.0 2.6 0.00 0.00 0.00 44 1014.3
20260505224549 79 275 0.0 7.0 0.00 0.00 0.00 44 1014.6
20260505223055 81 242 2.6 7.0 0.00 0.00 0.00 40 1014.3
20260505221551 81 261 0.9 3.5 0.00 0.00 0.00 43 1014.2
20260505220047 82 198 0.9 2.6 0.00 0.00 0.00 40 1014.3
20260505214558 82 260 0.9 5.2 0.00 0.00 0.00 41 1014.1
20260505213054 81 262 2.6 9.6 0.00 0.00 0.00 42 1014.4
20260505211542 82 205 0.9 6.1 0.00 0.00 0.00 41 1014.6
20260505210040 80 259 0.9 4.3 0.00 0.00 0.00 42 1014.7
20260505204540 81 118 2.6 8.7 0.00 0.00 0.00 40 1014.8
20260505203045 83 246 1.7 5.2 0.00 0.00 0.00 40 1014.7
20260505201548 82 156 3.5 11.3 0.00 0.00 0.00 40 1015.0
20260505200035 82 28 0.9 4.3 0.00 0.00 0.00 41 1015.0
20260505194536 80 257 0.9 5.2 0.00 0.00 0.00 42 1015.2
20260505193044 81 257 1.7 5.2 0.00 0.00 0.00 45 1015.5
20260505191534 80 252 1.7 5.2 0.00 0.00 0.00 40 1015.5
20260505190038 80 262 0.9 7.0 0.00 0.00 0.00 42 1015.7
20260505184527 81 268 3.5 11.3 0.00 0.00 0.00 39 1016.4
20260505183043 80 314 0.9 4.3 0.00 0.00 0.00 43 1016.6